Back to catalog

METEOR 2-6 DEB

LostPO
NORAD 36307·DEBRIS·🇷🇺 Russia

Launched Sep 9, 1980 from Plesetsk Cosmodrome

Loading…

Next Passes (next 24 hours)

TLE

StaleSource: Space-Track

Epoch: Apr 7, 2024, 04:02 UTC

1 36307U 80073K   24098.16850957  .00011474  00000-0  35244-2 0  9998
2 36307  81.2136  41.3961 0020187 321.5536  38.4213 14.41419688790552

Track METEOR 2-6 DEB in real time with AllMySat

Download on the App Store